Birchwood, AK

8:11 PM AKDT on June 25, 2017 (GMT -0800)
Birchwood

Weather History for PABV - March, 2013

Change the Weather History Date:

Wednesday, March 20, 2013

  Actual Average Record
Temperature  
Mean Temperature 12 °F -  
Max Temperature 24 °F 32 °F 46 °F (1992)
Min Temperature 0 °F 16 °F -4 °F (2007)
Degree Days  
Heating Degree Days 53    
Moisture  
Dew Point -1 °F    
Average Humidity 57    
Maximum Humidity 92    
Minimum Humidity 34    
Precipitation  
Precipitation 0.00 in - - ()
Sea Level Pressure  
Sea Level Pressure 29.92 in    
Wind  
Wind Speed 4 mph (SSE)    
Max Wind Speed 8 mph    
Max Gust Speed -    
Visibility 10 miles    
Events      
Averages and records for this station are not official NWS values.
T = Trace of Precipitation, MM = Missing Value Source: NWS Daily Summary

Daily Weather History Graph

Daily Weather History Graph

Search for Another Location

Airport or City:

Trip Planner

Search our weather history database for the weather conditions in past years. The results will help you decide how hot, cold, wet, or windy it might be!

Date:

Astronomy

Mar. 20, 2013 Rise Set
Actual Time 7:57 AM AKDT 8:14 PM AKDT
Civil Twilight 7:14 AM AKDT 8:57 PM AKDT
Nautical Twilight 6:21 AM AKDT 9:50 PM AKDT
Astronomical Twilight 5:24 AM AKDT 10:49 PM AKDT
Moon 12:24 PM AKDT (3/20) 5:20 AM AKDT (3/20)
Length of Visible Light 13h 43m
Length of Day
12h 16m
First Quarter, 60% of the Moon is Illuminated
Mar 20
First Quarter
Mar 27
Full
Apr 2
Last Quarter
Apr 10
New
Apr 18
First Quarter

Hourly Weather History & Observations

Time (AKDT) Temp. Windchill Dew Point Humidity Pressure Visibility Wind Dir Wind Speed Gust Speed Precip Events Conditions
2:16 AM 8.6 °F 2.0 °F -0.4 °F 67% 29.90 in 10.0 mi SSE 3.5 mph - N/A   Clear
2:36 AM 6.8 °F -2.0 °F -0.4 °F 72% 29.90 in 10.0 mi SSE 4.6 mph - N/A   Clear
2:56 AM 3.2 °F -4.2 °F -0.4 °F 85% 29.90 in 10.0 mi SSE 3.5 mph - N/A   Clear
3:16 AM 3.2 °F -4.2 °F -2.2 °F 78% 29.90 in 10.0 mi South 3.5 mph - N/A   Clear
3:36 AM 3.2 °F -4.2 °F -0.4 °F 85% 29.90 in 10.0 mi South 3.5 mph - N/A   Clear
3:56 AM 3.2 °F -6.2 °F -0.4 °F 85% 29.91 in 10.0 mi SSE 4.6 mph - N/A   Clear
4:16 AM 3.2 °F -6.2 °F -0.4 °F 85% 29.91 in 10.0 mi SE 4.6 mph - N/A   Clear
4:36 AM 1.4 °F -6.2 °F -2.2 °F 85% 29.91 in 10.0 mi SE 3.5 mph - N/A   Clear
4:56 AM 3.2 °F -4.2 °F -2.2 °F 78% 29.91 in 10.0 mi SE 3.5 mph - N/A   Clear
5:16 AM 1.4 °F -8.3 °F -2.2 °F 85% 29.91 in 10.0 mi East 4.6 mph - N/A   Clear
5:36 AM 1.4 °F -11.3 °F -2.2 °F 85% 29.90 in 10.0 mi ENE 6.9 mph - N/A   Clear
5:56 AM 1.4 °F -8.3 °F -2.2 °F 85% 29.90 in 10.0 mi SE 4.6 mph - N/A   Clear
6:16 AM 1.4 °F -6.2 °F -2.2 °F 85% 29.91 in 10.0 mi SE 3.5 mph - N/A   Clear
6:36 AM -0.4 °F -10.4 °F -2.2 °F 92% 29.91 in 10.0 mi SSE 4.6 mph - N/A   Clear
6:56 AM -0.4 °F -8.3 °F -4.0 °F 85% 29.91 in 10.0 mi SE 3.5 mph - N/A   Clear
3:56 PM 21.2 °F - 1.4 °F 42% 29.92 in 10.0 mi Calm Calm - N/A   Unknown
4:16 PM 23.0 °F - -0.4 °F 36% 29.92 in 10.0 mi Calm Calm - N/A   Clear
4:36 PM 23.0 °F 18.4 °F -0.4 °F 36% 29.92 in 10.0 mi West 3.5 mph - N/A   Clear
4:56 PM 23.0 °F - -0.4 °F 36% 29.92 in 10.0 mi Calm Calm - N/A   Clear
5:16 PM 23.0 °F - -0.4 °F 36% 29.92 in 10.0 mi Calm Calm - N/A   Clear
5:36 PM 23.0 °F 18.4 °F -0.4 °F 36% 29.92 in 10.0 mi West 3.5 mph - N/A   Clear
5:56 PM 24.8 °F 20.5 °F -0.4 °F 34% 29.92 in 10.0 mi West 3.5 mph - N/A   Clear
6:16 PM 24.8 °F 20.5 °F -0.4 °F 34% 29.92 in 10.0 mi West 3.5 mph - N/A   Clear
6:36 PM 24.8 °F 19.1 °F 1.4 °F 36% 29.92 in 10.0 mi WNW 4.6 mph - N/A   Clear
6:56 PM 23.0 °F - -0.4 °F 36% 29.92 in 10.0 mi Calm Calm - N/A   Clear
7:16 PM 23.0 °F 18.4 °F 1.4 °F 39% 29.92 in 10.0 mi WSW 3.5 mph - N/A   Clear
7:36 PM 21.2 °F 16.4 °F 1.4 °F 42% 29.92 in 10.0 mi SSW 3.5 mph - N/A   Clear
7:56 PM 19.4 °F 12.8 °F 3.2 °F 49% 29.92 in 10.0 mi South 4.6 mph - N/A   Clear
8:16 PM 19.4 °F 11.5 °F 1.4 °F 46% 29.93 in 10.0 mi South 5.8 mph - N/A   Clear
8:36 PM 19.4 °F 14.3 °F 3.2 °F 49% 29.93 in 10.0 mi SE 3.5 mph - N/A   Clear
8:56 PM 17.6 °F 10.7 °F 1.4 °F 49% 29.94 in 10.0 mi SE 4.6 mph - N/A   Clear
9:16 PM 15.8 °F 8.6 °F -0.4 °F 49% 29.95 in 10.0 mi SE 4.6 mph - N/A   Clear
9:36 PM 15.8 °F 7.2 °F -0.4 °F 49% 29.95 in 10.0 mi ESE 5.8 mph - N/A   Clear
9:56 PM 15.8 °F 6.1 °F -0.4 °F 49% 29.95 in 10.0 mi ESE 6.9 mph - N/A   Clear
10:16 PM 17.6 °F 8.2 °F -0.4 °F 45% 29.96 in 10.0 mi ESE 6.9 mph - N/A   Clear
10:36 PM 17.6 °F 8.2 °F -0.4 °F 45% 29.96 in 10.0 mi ESE 6.9 mph - N/A   Partly Cloudy
10:56 PM 17.6 °F 9.3 °F -2.2 °F 42% 29.97 in 10.0 mi ESE 5.8 mph - N/A   Partly Cloudy
11:16 PM 17.6 °F 8.2 °F -2.2 °F 42% 29.97 in 10.0 mi ESE 6.9 mph - N/A   Clear
11:36 PM 15.8 °F 5.1 °F -2.2 °F 45% 29.97 in 10.0 mi ESE 8.1 mph - N/A   Clear
11:56 PM 15.8 °F 6.1 °F -2.2 °F 45% 29.98 in 10.0 mi ESE 6.9 mph - N/A   Clear